Home   Weather   Ahvaz   Past weeks

Flag for Iran Past Weather in Ahvaz, Iran — Yesterday and Last 2 Weeks

Now
61 °F

Sunny.


Feels Like: 61 °F
Forecast: 40 / 63 °F
Wind: 7 mph from West

Location: Ahwaz

Current Time: Dec 11, 2016 at 5:16:32 pm

Latest Report: Dec 11, 2016 at 4:30 pm


Visibility: 10 mi

Pressure: 30.07 "Hg

Humidity: 27%

Dew Point: 27 °F

Location of AhvazLocation

Past Weather in Ahvaz — Graph

°F

Ahvaz Temperature Yesterday

Maximum temperature yesterday: 61 °F (at 3:30 pm)
Minimum temperature yesterday: 39 °F (at 6:30 am)
Average temperature yesterday: 50 °F

High & Low Weather Summary for the Past Weeks

 TemperatureHumidityPressure
High75 °F (Nov 27, 2:00 pm)100% (Dec 2, 6:30 pm)30.27 "Hg (Dec 2, 6:30 pm)
Low39 °F (Dec 10, 6:30 am)10% (Nov 28, 2:00 pm)29.86 "Hg (Nov 27, 8:30 am)
Average61 °F49%30.10 "Hg
* Reported Nov 26 3:30 pm — Dec 11 4:00 pm, Ahvaz, Weather by CustomWeather, © 2016

Note: Actual official high and low records may vary slightly from our data, if they occured in-between our weather recording intervals... More about our weather records

Advertising

Ahvaz Weather History for the Previous 24 Hours

Scroll right to see more
 ConditionsComfort  
Time TempWeatherWind HumidityBarometerVisibility
4:00 pm
Sun, Dec 11
61 °FSunny.7 mph25%30.07 "Hg10 mi
3:30 pm61 °FSunny.7 mph23%30.07 "Hg10 mi
2:30 pm61 °FSunny.7 mph25%30.07 "Hg10 mi
1:30 pm61 °FSunny.7 mph27%30.09 "Hg10 mi
1:00 pm59 °FSunny.7 mph27%30.09 "Hg10 mi
12:30 pm59 °FSunny.9 mph31%30.09 "Hg10 mi
11:30 am57 °FSunny.7 mph31%30.12 "Hg10 mi
10:30 am55 °FSunny.7 mph33%30.12 "Hg10 mi
10:00 am54 °FSunny.7 mph35%30.12 "Hg10 mi
9:30 am50 °FSunny.5 mph40%30.12 "Hg10 mi
9:00 am48 °FSunny.5 mph40%30.12 "Hg10 mi
8:30 am46 °FSunny.2 mph46%30.12 "Hg10 mi
8:00 am43 °FSunny.2 mph49%30.09 "Hg10 mi
7:30 am43 °FClear.5 mph49%30.09 "Hg5 mi
7:00 am39 °FClear.2 mph61%30.07 "Hg5 mi
6:30 am41 °FClear.No wind53%30.07 "Hg5 mi
5:30 am45 °FClear.5 mph46%30.07 "Hg5 mi
4:30 am45 °FClear.7 mph46%30.07 "Hg5 mi
3:30 am46 °FClear.5 mph43%30.09 "Hg5 mi
2:30 am45 °FClear.5 mph53%30.09 "Hg10 mi
1:30 am46 °FClear.7 mph50%30.09 "Hg10 mi
12:30 am48 °FClear.5 mph46%30.09 "Hg10 mi
11:30 pm
Sat, Dec 10
48 °FClear.5 mph43%30.09 "Hg10 mi
11:00 pm50 °FClear.5 mph43%30.09 "Hg10 mi
10:30 pm50 °FClear.7 mph43%30.09 "Hg10 mi
9:30 pm50 °FClear.5 mph43%30.09 "Hg5 mi
9:00 pm50 °FClear.5 mph47%30.07 "Hg5 mi
8:30 pm52 °FClear.5 mph47%30.09 "Hg5 mi
7:30 pm52 °FClear.5 mph50%30.09 "Hg5 mi
7:00 pm54 °FClear.5 mph47%30.09 "Hg4 mi
6:30 pm54 °FClear.2 mph47%30.09 "Hg4 mi
6:00 pm55 °FClear.2 mph44%30.07 "Hg4 mi
5:30 pm57 °FClear.5 mph41%30.07 "Hg4 mi
Weather by CustomWeather, © 2016

See weather overviewHow to use our weather pages